TimeEDT,TemperatureF,Dew PointF,Humidity,Sea Level PressureIn,VisibilityMPH,Wind Direction,Wind SpeedMPH,Gust SpeedMPH,PrecipitationIn,Events,Conditions,WindDirDegrees,DateUTC
12:51 AM,61.0,55.0,81,29.90,9.0,North,16.1,-,0.00,Rain,Light Rain,350,2013-09-13 04:51:00
1:51 AM,59.0,55.0,87,29.90,8.0,Calm,Calm,-,0.06,Rain,Light Rain,0,2013-09-13 05:51:00
2:51 AM,57.9,55.0,90,29.86,9.0,Calm,Calm,-,0.08,Rain,Light Rain,0,2013-09-13 06:51:00
3:51 AM,57.9,55.0,90,29.86,10.0,NNW,6.9,-,0.00,,Scattered Clouds,330,2013-09-13 07:51:00
4:22 AM,57.2,55.4,94,29.86,10.0,WNW,3.5,-,N/A,,Mostly Cloudy,290,2013-09-13 08:22:00
4:51 AM,57.9,55.9,93,29.86,10.0,WNW,5.8,-,N/A,,Mostly Cloudy,300,2013-09-13 08:51:00
5:51 AM,57.9,55.0,90,29.88,10.0,NW,10.4,-,N/A,,Mostly Cloudy,310,2013-09-13 09:51:00
6:51 AM,57.9,55.0,90,29.89,10.0,NW,11.5,-,N/A,,Overcast,310,2013-09-13 10:51:00
7:06 AM,57.2,55.4,94,29.88,10.0,NW,9.2,-,N/A,,Mostly Cloudy,310,2013-09-13 11:06:00
7:39 AM,57.2,55.4,94,29.89,10.0,West,4.6,-,N/A,,Mostly Cloudy,260,2013-09-13 11:39:00
7:51 AM,57.0,55.0,93,29.91,10.0,West,6.9,-,N/A,,Scattered Clouds,280,2013-09-13 11:51:00
8:15 AM,57.2,55.4,94,29.90,10.0,NW,9.2,-,N/A,,Mostly Cloudy,310,2013-09-13 12:15:00
8:51 AM,60.1,55.9,86,29.91,10.0,NW,9.2,-,N/A,,Mostly Cloudy,310,2013-09-13 12:51:00
9:51 AM,60.1,54.0,80,29.91,10.0,NW,10.4,-,N/A,,Mostly Cloudy,310,2013-09-13 13:51:00
10:33 AM,62.6,53.6,72,29.91,10.0,WNW,11.5,-,N/A,,Mostly Cloudy,300,2013-09-13 14:33:00
10:51 AM,63.0,51.1,65,29.92,10.0,NW,13.8,-,N/A,,Mostly Cloudy,320,2013-09-13 14:51:00
11:51 AM,66.0,50.0,56,29.92,10.0,NNW,12.7,-,N/A,,Mostly Cloudy,330,2013-09-13 15:51:00
12:51 PM,57.9,53.1,84,29.94,6.0,NNW,19.6,28.8,0.09,Rain,Light Rain,330,2013-09-13 16:51:00
1:51 PM,57.0,51.1,81,29.96,7.0,NNW,18.4,28.8,0.02,Rain,Light Rain,340,2013-09-13 17:51:00
2:14 PM,57.2,51.8,82,29.94,10.0,NNW,10.4,-,0.00,,Mostly Cloudy,330,2013-09-13 18:14:00
2:51 PM,61.0,48.9,64,29.95,10.0,NNW,15.0,19.6,0.00,,Mostly Cloudy,340,2013-09-13 18:51:00
3:51 PM,61.0,46.0,58,29.95,10.0,NNW,17.3,21.9,N/A,,Mostly Cloudy,330,2013-09-13 19:51:00
4:51 PM,62.1,46.0,56,29.97,10.0,NNW,15.0,-,N/A,,Mostly Cloudy,330,2013-09-13 20:51:00
5:51 PM,60.1,44.1,55,29.98,10.0,NNW,15.0,-,N/A,,Mostly Cloudy,340,2013-09-13 21:51:00
6:51 PM,57.0,44.1,62,30.01,10.0,NNW,10.4,-,N/A,,Mostly Cloudy,340,2013-09-13 22:51:00
7:51 PM,55.9,45.0,67,30.02,10.0,NNW,11.5,-,N/A,,Mostly Cloudy,330,2013-09-13 23:51:00
8:51 PM,55.0,44.1,67,30.05,10.0,NNW,9.2,-,N/A,,Mostly Cloudy,340,2013-09-14 00:51:00
9:51 PM,54.0,45.0,72,30.06,10.0,NW,8.1,-,N/A,,Overcast,320,2013-09-14 01:51:00
10:51 PM,53.1,45.0,74,30.06,10.0,NW,6.9,-,N/A,,Overcast,320,2013-09-14 02:51:00
11:51 PM,52.0,45.0,77,30.06,10.0,NW,8.1,-,N/A,,Overcast,320,2013-09-14 03:51:00